Location: Allentsteig
(48.6833°N, 15.3167°E)
Time: 11:23:35
(UTC+00:00)

USA 234 - Pass Details

Date: 18 September 2020
Orbit: 1102 x 1106 km, 123.0° (Epoch: 16 October)

Event Time Altitude Azimuth Distance (km) Brightness Sun altitude
Rises 18:32:24 0° 56° (NE) 3,927 5.8 -15.0°
Reaches altitude 10° 18:35:05 10° 64° (ENE) 2,967 5.1 -15.4°
Maximum altitude 18:41:12 41° 133° (SE) 1,554 3.6 -16.4°
Drops below altitude 10° 18:47:17 10° 202° (SSW) 2,956 5.5 -17.3°
Sets 18:49:56 0° 209° (SSW) 3,911 6.2 -17.7°
